Retour au catalogue

STARLINK-30555

ActifCommunicationsVLEO
NORAD 58040·PAYLOAD·🇺🇸 United States

Lancé Oct 9, 2023 depuis Vandenberg Space Force Base

Loading…

Prochains Passages (prochaines 24 heures)

TLE

FraisSource: CelesTrak SupGP

Époque: Sep 15, 2026, 02:13 UTC

1 58040C 23156N   26258.09284722  .00046784  00000+0  13824-2 0  2587
2 58040  53.1605   4.7434 0001181  83.7451 261.7889 15.34364780    13

Suivez STARLINK-30555 en temps réel avec AllMySat

Download on the App Store